Terug naar catalogus

STARLINK-31565

ActiefCommunicatieVLEO
NORAD 59323·PAYLOAD·🇺🇸 United States

Gelanceerd Mar 25, 2024 vanaf Cape Canaveral Space Force Station

Loading…

Volgende Passages (komende 24 uur)

TLE

VersSource: CelesTrak SupGP

Epoch: Sep 14, 2026, 22:07 UTC

1 59323C 24057D   26257.92201389  .00007517  00000+0  27221-3 0  2579
2 59323  42.9997 206.0506 0001183 261.2033   9.9764 15.27579611    13

Volg STARLINK-31565 in realtime met AllMySat

Download on the App Store